Location: Saddleback Butte
(34.6776°N, 117.8050°W)
Time: 01:00:59
(UTC-07:00)

Iridium 35 - Visible Passes

Search period start: 01 May 2016 00:00
Search period end: 11 May 2016 00:00
Orbit: 776 x 779 km, 86.4° (Epoch: 30 April)

Date Brightness Start Highest point End Pass type
(mag) Time Alt. Az. Time Alt. Az. Time Alt. Az.
01 May 8.1 20:12:22 10° WSW 20:15:32 16° WNW 20:18:43 10° NW visible
02 May 8.7 05:06:51 10° ENE 05:07:28 10° ENE 05:08:06 10° E visible
04 May 8.7 20:14:54 10° W 20:15:50 10° WNW 20:16:46 10° WNW visible
05 May 8.1 05:04:39 10° NE 05:07:47 16° ENE 05:10:54 10° ESE visible
08 May 7.7 05:03:54 10° NNE 05:08:02 23° E 05:12:09 10° SE visible
09 May 8.2 04:32:15 10° NE 04:34:13 12° ENE 04:36:11 10° E visible
